Wetterdaten: Sonntag, 19.04.2015
Datum Zeit Auen-Temp. Temp gefhlt Luftfeuchte Luftdruck Regen Wind Richtung Richtung Taupunkt Windben
19.04.2015 00:00 -1,8 C -2,5 C 78 % 1019,8 hPa 0,0 mm 0,0 km/h (0 Bft) SO 135 -5,1 C 0,0 km/h (0 Bft)
19.04.2015 00:05 -1,8 C -2,5 C 79 % 1019,8 hPa 0,0 mm 0,0 km/h (0 Bft) O-SO 112 -4,9 C 0,0 km/h (0 Bft)
19.04.2015 00:10 -1,7 C -2,4 C 79 % 1019,8 hPa 0,0 mm 0,0 km/h (0 Bft) O-NO 67 -4,8 C 0,0 km/h (0 Bft)
19.04.2015 00:15 -1,9 C -2,6 C 79 % 1019,9 hPa 0,0 mm 0,0 km/h (0 Bft) O-SO 112 -5,0 C 0,0 km/h (0 Bft)
19.04.2015 00:20 -1,8 C -2,5 C 79 % 1019,9 hPa 0,0 mm 0,0 km/h (0 Bft) SO 135 -4,9 C 0,0 km/h (0 Bft)
19.04.2015 00:25 -1,5 C -2,2 C 80 % 1019,9 hPa 0,0 mm 0,0 km/h (0 Bft) O-SO 112 -4,5 C 0,0 km/h (0 Bft)
19.04.2015 00:30 -2,1 C -2,7 C 79 % 1019,9 hPa 0,0 mm 0,0 km/h (0 Bft) O-SO 112 -5,2 C 0,0 km/h (0 Bft)
19.04.2015 00:35 -2,2 C -2,8 C 79 % 1019,7 hPa 0,0 mm 0,0 km/h (0 Bft) O-NO 67 -5,3 C 0,0 km/h (0 Bft)
19.04.2015 00:40 -2,2 C -2,8 C 79 % 1019,7 hPa 0,0 mm 0,0 km/h (0 Bft) O-NO 67 -5,3 C 0,0 km/h (0 Bft)
19.04.2015 00:45 -2,4 C -2,9 C 79 % 1019,7 hPa 0,0 mm 0,0 km/h (0 Bft) SO 135 -5,5 C 0,0 km/h (0 Bft)
19.04.2015 00:50 -2,3 C -2,9 C 79 % 1019,7 hPa 0,0 mm 0,0 km/h (0 Bft) O 90 -5,4 C 0,0 km/h (0 Bft)
19.04.2015 00:55 -2,8 C -3,2 C 79 % 1019,4 hPa 0,0 mm 0,0 km/h (0 Bft) O-NO 67 -5,9 C 0,0 km/h (0 Bft)
19.04.2015 01:00 -2,6 C -3,1 C 79 % 1019,4 hPa 0,0 mm 0,0 km/h (0 Bft) O-NO 67 -5,7 C 0,0 km/h (0 Bft)
19.04.2015 01:04 -2,1 C -2,8 C 81 % 1019,4 hPa 0,0 mm 0,0 km/h (0 Bft) SO 135 -4,9 C 0,0 km/h (0 Bft)
19.04.2015 01:10 -2,1 C -2,8 C 81 % 1019,4 hPa 0,0 mm 0,0 km/h (0 Bft) O-NO 67 -4,9 C 0,0 km/h (0 Bft)
19.04.2015 01:15 -2,5 C -3,0 C 81 % 1019,6 hPa 0,0 mm 0,0 km/h (0 Bft) S-SO 157 -5,3 C 0,0 km/h (0 Bft)
19.04.2015 01:20 -2,6 C -3,1 C 80 % 1019,6 hPa 0,0 mm 0,0 km/h (0 Bft) S-SO 157 -5,6 C 0,0 km/h (0 Bft)
19.04.2015 01:25 -2,3 C -3,0 C 81 % 1019,6 hPa 0,0 mm 0,0 km/h (0 Bft) SO 135 -5,1 C 0,0 km/h (0 Bft)
19.04.2015 01:30 -2,1 C -2,8 C 82 % 1019,6 hPa 0,0 mm 0,0 km/h (0 Bft) S-SW 202 -4,7 C 0,0 km/h (0 Bft)
19.04.2015 01:35 -2,2 C -2,9 C 82 % 1019,6 hPa 0,0 mm 0,0 km/h (0 Bft) S 180 -4,8 C 0,0 km/h (0 Bft)
19.04.2015 01:40 -2,4 C -3,0 C 81 % 1019,6 hPa 0,0 mm 0,0 km/h (0 Bft) S 180 -5,2 C 0,0 km/h (0 Bft)
19.04.2015 01:45 -3,0 C -3,5 C 80 % 1019,6 hPa 0,0 mm 0,0 km/h (0 Bft) W-SW 247 -6,0 C 0,0 km/h (0 Bft)
19.04.2015 01:50 -2,8 C -3,3 C 80 % 1019,6 hPa 0,0 mm 0,0 km/h (0 Bft) W-SW 247 -5,8 C 0,0 km/h (0 Bft)
19.04.2015 01:55 -2,7 C -3,2 C 81 % 1019,4 hPa 0,0 mm 0,0 km/h (0 Bft) SW 225 -5,5 C 0,0 km/h (0 Bft)
19.04.2015 02:00 -2,6 C -3,2 C 81 % 1019,4 hPa 0,0 mm 0,0 km/h (0 Bft) S-SW 202 -5,4 C 0,0 km/h (0 Bft)
19.04.2015 02:05 -2,7 C -3,3 C 81 % 1019,4 hPa 0,0 mm 0,0 km/h (0 Bft) S-SW 202 -5,5 C 0,0 km/h (0 Bft)
19.04.2015 02:10 -2,4 C -3,1 C 82 % 1019,4 hPa 0,0 mm 0,0 km/h (0 Bft) O-SO 112 -5,0 C 0,0 km/h (0 Bft)
19.04.2015 02:15 -2,7 C -3,2 C 82 % 1019,1 hPa 0,0 mm 0,0 km/h (0 Bft) NO 45 -5,3 C 2,6 km/h (1 Bft)
19.04.2015 02:20 -2,9 C -3,3 C 82 % 1019,1 hPa 0,0 mm 0,0 km/h (0 Bft) NO 45 -5,5 C 0,0 km/h (0 Bft)
19.04.2015 02:25 -3,0 C -3,4 C 82 % 1019,1 hPa 0,0 mm 0,0 km/h (0 Bft) NO 45 -5,6 C 0,0 km/h (0 Bft)
19.04.2015 02:30 -2,7 C -3,2 C 82 % 1019,1 hPa 0,0 mm 0,0 km/h (0 Bft) SO 135 -5,3 C 0,0 km/h (0 Bft)
19.04.2015 02:35 -2,8 C -3,3 C 82 % 1018,9 hPa 0,0 mm 0,0 km/h (0 Bft) W-SW 247 -5,4 C 0,0 km/h (0 Bft)
19.04.2015 02:40 -2,8 C -3,3 C 82 % 1018,9 hPa 0,0 mm 0,0 km/h (0 Bft) W-SW 247 -5,4 C 0,0 km/h (0 Bft)
19.04.2015 02:45 -3,0 C -3,5 C 82 % 1018,9 hPa 0,0 mm 0,0 km/h (0 Bft) W-SW 247 -5,6 C 0,0 km/h (0 Bft)
19.04.2015 02:50 -2,7 C -3,3 C 83 % 1018,9 hPa 0,0 mm 0,0 km/h (0 Bft) W-SW 247 -5,2 C 0,0 km/h (0 Bft)
19.04.2015 02:55 -3,0 C -3,5 C 82 % 1019,1 hPa 0,0 mm 0,0 km/h (0 Bft) SW 225 -5,6 C 0,0 km/h (0 Bft)
19.04.2015 03:00 -3,0 C -3,5 C 82 % 1019,1 hPa 0,0 mm 0,0 km/h (0 Bft) SW 225 -5,6 C 0,0 km/h (0 Bft)
19.04.2015 03:05 -3,0 C -3,5 C 82 % 1019,1 hPa 0,0 mm 0,0 km/h (0 Bft) W-SW 247 -5,6 C 0,0 km/h (0 Bft)
19.04.2015 03:10 -3,1 C -3,6 C 82 % 1019,1 hPa 0,0 mm 0,0 km/h (0 Bft) SW 225 -5,7 C 0,0 km/h (0 Bft)
19.04.2015 03:15 -3,1 C -3,6 C 83 % 1018,5 hPa 0,0 mm 0,0 km/h (0 Bft) W 270 -5,6 C 0,0 km/h (0 Bft)
19.04.2015 03:20 -3,0 C -3,6 C 83 % 1018,5 hPa 0,0 mm 0,0 km/h (0 Bft) W 270 -5,5 C 0,0 km/h (0 Bft)
19.04.2015 03:25 -3,3 C -3,8 C 83 % 1018,5 hPa 0,0 mm 0,0 km/h (0 Bft) W 270 -5,8 C 0,0 km/h (0 Bft)
19.04.2015 03:30 -3,3 C -3,9 C 83 % 1018,5 hPa 0,0 mm 0,0 km/h (0 Bft) W 270 -5,8 C 0,0 km/h (0 Bft)
19.04.2015 03:35 -3,4 C -3,9 C 83 % 1018,2 hPa 0,0 mm 0,0 km/h (0 Bft) NW 315 -5,9 C 0,0 km/h (0 Bft)
19.04.2015 03:40 -3,4 C -3,9 C 83 % 1018,2 hPa 0,0 mm 0,0 km/h (0 Bft) W-SW 247 -5,9 C 0,0 km/h (0 Bft)
19.04.2015 03:45 -3,1 C -3,7 C 83 % 1018,2 hPa 0,0 mm 0,0 km/h (0 Bft) SW 225 -5,6 C 0,0 km/h (0 Bft)
19.04.2015 03:50 -3,4 C -3,9 C 83 % 1018,2 hPa 0,0 mm 0,0 km/h (0 Bft) SW 225 -5,9 C 0,0 km/h (0 Bft)
19.04.2015 03:55 -3,5 C -4,0 C 83 % 1018,1 hPa 0,0 mm 0,0 km/h (0 Bft) NW 315 -6,0 C 0,0 km/h (0 Bft)
19.04.2015 04:00 -3,5 C -4,0 C 83 % 1018,1 hPa 0,0 mm 0,0 km/h (0 Bft) NW 315 -6,0 C 0,0 km/h (0 Bft)
19.04.2015 04:05 -3,5 C -4,0 C 83 % 1018,1 hPa 0,0 mm 0,0 km/h (0 Bft) SW 225 -6,0 C 0,0 km/h (0 Bft)
19.04.2015 04:10 -3,6 C -4,1 C 83 % 1018,1 hPa 0,0 mm 0,0 km/h (0 Bft) SW 225 -6,1 C 0,0 km/h (0 Bft)
19.04.2015 04:15 -3,9 C -4,4 C 83 % 1017,8 hPa 0,0 mm 0,0 km/h (0 Bft) W 270 -6,4 C 0,0 km/h (0 Bft)
19.04.2015 04:20 -3,9 C -4,3 C 82 % 1017,8 hPa 0,0 mm 0,0 km/h (0 Bft) W 270 -6,5 C 0,0 km/h (0 Bft)
19.04.2015 04:25 -3,8 C -4,3 C 83 % 1017,8 hPa 0,0 mm 0,0 km/h (0 Bft) W 270 -6,3 C 0,0 km/h (0 Bft)
19.04.2015 04:30 -3,6 C -4,2 C 83 % 1017,8 hPa 0,0 mm 0,0 km/h (0 Bft) SW 225 -6,1 C 0,0 km/h (0 Bft)
19.04.2015 04:35 -3,8 C -4,2 C 83 % 1017,6 hPa 0,0 mm 0,0 km/h (0 Bft) SW 225 -6,3 C 0,0 km/h (0 Bft)
19.04.2015 04:40 -4,1 C -4,5 C 83 % 1017,6 hPa 0,0 mm 0,0 km/h (0 Bft) SW 225 -6,5 C 0,0 km/h (0 Bft)
19.04.2015 04:45 -3,9 C -4,4 C 83 % 1017,6 hPa 0,0 mm 0,0 km/h (0 Bft) SW 225 -6,4 C 0,0 km/h (0 Bft)
19.04.2015 04:50 -3,9 C -4,4 C 83 % 1017,6 hPa 0,0 mm 0,0 km/h (0 Bft) SW 225 -6,4 C 0,0 km/h (0 Bft)
19.04.2015 04:55 -3,4 C -4,1 C 84 % 1017,4 hPa 0,0 mm 0,0 km/h (0 Bft) SW 225 -5,7 C 0,0 km/h (0 Bft)
19.04.2015 05:00 -3,2 C -3,9 C 84 % 1017,4 hPa 0,0 mm 0,0 km/h (0 Bft) S 180 -5,5 C 0,0 km/h (0 Bft)
19.04.2015 05:05 -3,1 C -3,7 C 85 % 1017,4 hPa 0,0 mm 0,0 km/h (0 Bft) S 180 -5,3 C 0,0 km/h (0 Bft)
19.04.2015 05:10 -3,1 C -3,7 C 85 % 1017,4 hPa 0,0 mm 0,0 km/h (0 Bft) SW 225 -5,3 C 0,0 km/h (0 Bft)
19.04.2015 05:15 -3,7 C -4,1 C 85 % 1017,2 hPa 0,0 mm 0,0 km/h (0 Bft) S-SO 157 -5,8 C 2,8 km/h (1 Bft)
19.04.2015 05:20 -3,6 C -4,1 C 85 % 1017,2 hPa 0,0 mm 0,0 km/h (0 Bft) SO 135 -5,7 C 0,0 km/h (0 Bft)
19.04.2015 05:25 -3,9 C -4,3 C 84 % 1017,2 hPa 0,0 mm 0,0 km/h (0 Bft) O-SO 112 -6,2 C 0,0 km/h (0 Bft)
19.04.2015 05:30 -3,9 C -4,3 C 84 % 1017,2 hPa 0,0 mm 0,0 km/h (0 Bft) SO 135 -6,2 C 0,0 km/h (0 Bft)
19.04.2015 05:35 -4,1 C -4,5 C 84 % 1017,2 hPa 0,0 mm 0,0 km/h (0 Bft) W 270 -6,4 C 0,0 km/h (0 Bft)
19.04.2015 05:40 -4,2 C -4,6 C 84 % 1017,2 hPa 0,0 mm 0,0 km/h (0 Bft) W 270 -6,5 C 0,0 km/h (0 Bft)
19.04.2015 05:45 -4,3 C -4,7 C 84 % 1017,2 hPa 0,0 mm 0,0 km/h (0 Bft) W 270 -6,6 C 0,0 km/h (0 Bft)
19.04.2015 05:50 -4,3 C -4,8 C 83 % 1017,2 hPa 0,0 mm 0,0 km/h (0 Bft) W 270 -6,7 C 0,0 km/h (0 Bft)
19.04.2015 05:55 -4,5 C -5,0 C 83 % 1017,1 hPa 0,0 mm 0,0 km/h (0 Bft) W 270 -6,9 C 0,0 km/h (0 Bft)
19.04.2015 06:00 -4,0 C -4,6 C 84 % 1017,1 hPa 0,0 mm 0,0 km/h (0 Bft) W 270 -6,3 C 0,0 km/h (0 Bft)
19.04.2015 06:05 -3,9 C -4,5 C 84 % 1017,1 hPa 0,0 mm 0,0 km/h (0 Bft) S-SO 157 -6,2 C 0,0 km/h (0 Bft)
19.04.2015 06:10 -4,3 C -4,7 C 84 % 1017,1 hPa 0,0 mm 0,0 km/h (0 Bft) W-NW 292 -6,6 C 0,0 km/h (0 Bft)
19.04.2015 06:15 -4,1 C -4,6 C 84 % 1016,8 hPa 0,0 mm 0,0 km/h (0 Bft) W-NW 292 -6,4 C 0,0 km/h (0 Bft)
19.04.2015 06:20 -4,3 C -4,8 C 84 % 1016,8 hPa 0,0 mm 0,0 km/h (0 Bft) W 270 -6,6 C 0,0 km/h (0 Bft)
19.04.2015 06:25 -4,5 C -4,9 C 84 % 1016,8 hPa 0,0 mm 0,0 km/h (0 Bft) W-SW 247 -6,8 C 0,0 km/h (0 Bft)
19.04.2015 06:30 -4,4 C -4,9 C 84 % 1016,8 hPa 0,0 mm 0,0 km/h (0 Bft) W-SW 247 -6,7 C 0,0 km/h (0 Bft)
19.04.2015 06:35 -4,3 C -4,8 C 84 % 1016,6 hPa 0,0 mm 0,0 km/h (0 Bft) NW 315 -6,6 C 0,0 km/h (0 Bft)
19.04.2015 06:40 -4,4 C -4,8 C 84 % 1016,6 hPa 0,0 mm 0,0 km/h (0 Bft) W-SW 247 -6,7 C 0,0 km/h (0 Bft)
19.04.2015 06:45 -4,5 C -4,9 C 84 % 1016,6 hPa 0,0 mm 0,0 km/h (0 Bft) W-SW 247 -6,8 C 0,0 km/h (0 Bft)
19.04.2015 06:50 -4,3 C -4,7 C 84 % 1016,6 hPa 0,0 mm 0,0 km/h (0 Bft) N-NW 337 -6,6 C 0,0 km/h (0 Bft)
19.04.2015 06:55 -4,1 C -4,4 C 84 % 1016,4 hPa 0,0 mm 0,0 km/h (0 Bft) N-NO 22 -6,4 C 3,1 km/h (1 Bft)
19.04.2015 07:00 -4,0 C -4,3 C 85 % 1016,4 hPa 0,0 mm 0,3 km/h (0 Bft) O 90 -6,1 C 0,0 km/h (0 Bft)
19.04.2015 07:05 -3,7 C -4,0 C 85 % 1016,4 hPa 0,0 mm 0,3 km/h (0 Bft) O-SO 112 -5,8 C 0,0 km/h (0 Bft)
19.04.2015 07:10 -3,6 C -3,9 C 85 % 1016,4 hPa 0,0 mm 0,0 km/h (0 Bft) O-SO 112 -5,7 C 0,0 km/h (0 Bft)
19.04.2015 07:15 -3,6 C -3,9 C 85 % 1016,4 hPa 0,0 mm 0,0 km/h (0 Bft) O-SO 112 -5,7 C 0,0 km/h (0 Bft)
19.04.2015 07:20 -3,3 C -3,6 C 86 % 1016,4 hPa 0,0 mm 0,0 km/h (0 Bft) O-SO 112 -5,3 C 0,0 km/h (0 Bft)
19.04.2015 07:25 -3,2 C -2,8 C 86 % 1016,4 hPa 0,0 mm 0,0 km/h (0 Bft) N-NO 22 -5,2 C 0,0 km/h (0 Bft)
19.04.2015 07:30 -3,2 C -1,8 C 86 % 1016,4 hPa 0,0 mm 0,0 km/h (0 Bft) N-NO 22 -5,2 C 0,0 km/h (0 Bft)
19.04.2015 07:35 -2,9 C 0,1 C 82 % 1016,7 hPa 0,0 mm 0,8 km/h (0 Bft) O-NO 67 -5,5 C 7,3 km/h (2 Bft)
19.04.2015 07:40 -2,5 C -0,4 C 83 % 1016,7 hPa 0,0 mm 1,0 km/h (0 Bft) O-SO 112 -5,0 C 0,0 km/h (0 Bft)
19.04.2015 07:45 -2,0 C 1,5 C 83 % 1016,7 hPa 0,0 mm 1,0 km/h (0 Bft) O 90 -4,5 C 0,0 km/h (0 Bft)
19.04.2015 07:50 -1,5 C 2,7 C 83 % 1016,7 hPa 0,0 mm 1,8 km/h (1 Bft) O-SO 112 -4,0 C 4,1 km/h (1 Bft)
19.04.2015 07:55 -0,6 C 4,4 C 83 % 1016,8 hPa 0,0 mm 2,6 km/h (1 Bft) N-NO 22 -3,1 C 9,8 km/h (2 Bft)
19.04.2015 08:00 0,0 C 5,1 C 83 % 1016,8 hPa 0,0 mm 2,8 km/h (1 Bft) O-NO 67 -2,5 C 6,2 km/h (2 Bft)
19.04.2015 08:05 0,4 C 5,8 C 82 % 1016,8 hPa 0,0 mm 2,6 km/h (1 Bft) N 360 -2,3 C 4,4 km/h (1 Bft)
19.04.2015 08:10 0,5 C 6,1 C 82 % 1016,8 hPa 0,0 mm 3,6 km/h (1 Bft) O-NO 67 -2,2 C 6,5 km/h (2 Bft)
19.04.2015 08:15 1,0 C 6,4 C 81 % 1016,8 hPa 0,0 mm 4,4 km/h (1 Bft) O-NO 67 -1,9 C 11,1 km/h (2 Bft)
19.04.2015 08:20 1,2 C 6,9 C 81 % 1016,8 hPa 0,0 mm 3,4 km/h (1 Bft) S-SO 157 -1,7 C 0,0 km/h (0 Bft)
19.04.2015 08:25 1,9 C 7,7 C 80 % 1016,8 hPa 0,0 mm 3,4 km/h (1 Bft) NO 45 -1,2 C 11,1 km/h (2 Bft)
19.04.2015 08:30 1,8 C 6,9 C 79 % 1016,8 hPa 0,0 mm 6,0 km/h (2 Bft) NO 45 -1,4 C 8,8 km/h (2 Bft)
19.04.2015 08:35 2,2 C 6,9 C 78 % 1016,9 hPa 0,0 mm 6,7 km/h (2 Bft) NO 45 -1,2 C 12,7 km/h (3 Bft)
19.04.2015 08:40 2,7 C 7,9 C 78 % 1016,9 hPa 0,0 mm 4,4 km/h (1 Bft) O-NO 67 -0,7 C 7,8 km/h (2 Bft)
19.04.2015 08:45 3,0 C 8,3 C 76 % 1016,9 hPa 0,0 mm 4,9 km/h (1 Bft) O-NO 67 -0,8 C 10,1 km/h (2 Bft)
19.04.2015 08:50 3,2 C 8,3 C 76 % 1016,9 hPa 0,0 mm 6,2 km/h (2 Bft) O-NO 67 -0,6 C 5,4 km/h (1 Bft)
19.04.2015 08:55 3,6 C 9,1 C 75 % 1017,1 hPa 0,0 mm 6,2 km/h (2 Bft) O-NO 67 -0,4 C 8,3 km/h (2 Bft)
19.04.2015 09:00 3,8 C 9,4 C 75 % 1017,1 hPa 0,0 mm 5,4 km/h (1 Bft) O-NO 67 -0,2 C 7,5 km/h (2 Bft)
19.04.2015 09:05 4,0 C 9,5 C 73 % 1017,1 hPa 0,0 mm 7,0 km/h (2 Bft) O-NO 67 -0,4 C 12,9 km/h (3 Bft)
19.04.2015 09:10 4,0 C 8,9 C 72 % 1017,1 hPa 0,0 mm 8,5 km/h (2 Bft) O-NO 67 -0,6 C 8,3 km/h (2 Bft)
19.04.2015 09:15 4,2 C 8,8 C 70 % 1017,1 hPa 0,0 mm 9,1 km/h (2 Bft) NO 45 -0,8 C 15,0 km/h (3 Bft)
19.04.2015 09:20 4,3 C 9,3 C 70 % 1017,1 hPa 0,0 mm 8,5 km/h (2 Bft) NO 45 -0,7 C 8,8 km/h (2 Bft)
19.04.2015 09:25 4,6 C 9,9 C 69 % 1017,1 hPa 0,0 mm 8,0 km/h (2 Bft) O-NO 67 -0,6 C 15,3 km/h (3 Bft)
19.04.2015 09:30 4,7 C 9,4 C 68 % 1017,1 hPa 0,0 mm 9,6 km/h (2 Bft) O-NO 67 -0,7 C 11,4 km/h (2 Bft)
19.04.2015 09:35 5,1 C 9,1 C 67 % 1017,2 hPa 0,0 mm 10,9 km/h (2 Bft) N-NO 22 -0,5 C 20,2 km/h (4 Bft)
19.04.2015 09:40 5,3 C 9,4 C 66 % 1017,2 hPa 0,0 mm 10,9 km/h (2 Bft) O-NO 67 -0,5 C 17,1 km/h (3 Bft)
19.04.2015 09:45 5,5 C 9,3 C 65 % 1017,2 hPa 0,0 mm 11,4 km/h (2 Bft) NO 45 -0,5 C 17,1 km/h (3 Bft)
19.04.2015 09:50 5,5 C 9,2 C 65 % 1017,2 hPa 0,0 mm 11,4 km/h (2 Bft) N-NO 22 -0,5 C 10,1 km/h (2 Bft)
19.04.2015 09:55 5,9 C 9,8 C 64 % 1017,3 hPa 0,0 mm 10,1 km/h (2 Bft) O-NO 67 -0,4 C 23,0 km/h (4 Bft)
19.04.2015 10:00 6,0 C 10,3 C 61 % 1017,3 hPa 0,0 mm 9,6 km/h (2 Bft) NO 45 -0,9 C 11,7 km/h (2 Bft)
19.04.2015 10:05 6,3 C 9,8 C 60 % 1017,3 hPa 0,0 mm 11,7 km/h (2 Bft) O-NO 67 -0,9 C 17,6 km/h (3 Bft)
19.04.2015 10:10 6,4 C 9,9 C 60 % 1017,3 hPa 0,0 mm 13,2 km/h (3 Bft) O-NO 67 -0,8 C 16,8 km/h (3 Bft)
19.04.2015 10:15 6,5 C 9,7 C 60 % 1017,4 hPa 0,0 mm 14,5 km/h (3 Bft) O-NO 67 -0,7 C 25,6 km/h (4 Bft)
19.04.2015 10:20 6,5 C 9,6 C 59 % 1017,4 hPa 0,0 mm 15,0 km/h (3 Bft) O-SO 112 -0,9 C 12,4 km/h (3 Bft)
19.04.2015 10:25 6,8 C 9,7 C 59 % 1017,4 hPa 0,0 mm 15,5 km/h (3 Bft) O 90 -0,6 C 28,0 km/h (4 Bft)
19.04.2015 10:30 7,0 C 9,9 C 58 % 1017,4 hPa 0,0 mm 14,8 km/h (3 Bft) O-NO 67 -0,7 C 10,9 km/h (2 Bft)
19.04.2015 10:35 7,2 C 10,1 C 57 % 1017,7 hPa 0,0 mm 14,2 km/h (3 Bft) N-NO 22 -0,7 C 28,2 km/h (4 Bft)
19.04.2015 10:40 7,2 C 10,3 C 57 % 1017,7 hPa 0,0 mm 14,5 km/h (3 Bft) NO 45 -0,7 C 20,2 km/h (4 Bft)
19.04.2015 10:45 7,3 C 10,5 C 55 % 1017,7 hPa 0,0 mm 14,8 km/h (3 Bft) O-NO 67 -1,1 C 21,2 km/h (4 Bft)
19.04.2015 10:50 7,5 C 10,6 C 55 % 1017,7 hPa 0,0 mm 15,3 km/h (3 Bft) O-NO 67 -0,9 C 26,7 km/h (4 Bft)
19.04.2015 10:55 7,7 C 10,7 C 54 % 1017,8 hPa 0,0 mm 14,8 km/h (3 Bft) N-NO 22 -1,0 C 28,7 km/h (4 Bft)
19.04.2015 11:00 8,0 C 11,0 C 53 % 1017,8 hPa 0,0 mm 13,7 km/h (3 Bft) O-NO 67 -1,0 C 18,9 km/h (3 Bft)
19.04.2015 11:05 7,9 C 10,9 C 52 % 1017,8 hPa 0,0 mm 15,0 km/h (3 Bft) O-NO 67 -1,3 C 22,8 km/h (4 Bft)
19.04.2015 11:10 7,9 C 10,5 C 52 % 1017,8 hPa 0,0 mm 17,6 km/h (3 Bft) NO 45 -1,3 C 22,0 km/h (4 Bft)
19.04.2015 11:15 8,2 C 10,6 C 53 % 1017,9 hPa 0,0 mm 16,1 km/h (3 Bft) N 360 -0,8 C 17,1 km/h (3 Bft)
19.04.2015 11:20 8,4 C 11,1 C 52 % 1017,9 hPa 0,0 mm 14,5 km/h (3 Bft) O-NO 67 -0,9 C 18,6 km/h (3 Bft)
19.04.2015 11:25 8,5 C 11,3 C 50 % 1017,9 hPa 0,0 mm 15,0 km/h (3 Bft) NO 45 -1,3 C 20,5 km/h (4 Bft)
19.04.2015 11:30 8,7 C 11,1 C 50 % 1017,9 hPa 0,0 mm 15,3 km/h (3 Bft) O-NO 67 -1,1 C 17,3 km/h (3 Bft)
19.04.2015 11:35 8,8 C 11,3 C 49 % 1017,8 hPa 0,0 mm 15,8 km/h (3 Bft) NO 45 -1,3 C 31,3 km/h (5 Bft)
19.04.2015 11:40 8,9 C 11,3 C 50 % 1017,8 hPa 0,0 mm 16,8 km/h (3 Bft) O-NO 67 -0,9 C 30,0 km/h (5 Bft)
19.04.2015 11:45 9,0 C 10,9 C 49 % 1017,8 hPa 0,0 mm 17,1 km/h (3 Bft) N-NO 22 -1,1 C 19,7 km/h (3 Bft)
19.04.2015 11:50 9,2 C 11,4 C 49 % 1017,8 hPa 0,0 mm 16,8 km/h (3 Bft) O-NO 67 -0,9 C 15,5 km/h (3 Bft)
19.04.2015 11:55 9,4 C 11,7 C 49 % 1018,1 hPa 0,0 mm 15,3 km/h (3 Bft) N-NO 22 -0,8 C 32,9 km/h (5 Bft)
19.04.2015 12:00 9,6 C 12,1 C 49 % 1018,1 hPa 0,0 mm 14,8 km/h (3 Bft) NO 45 -0,6 C 16,6 km/h (3 Bft)
19.04.2015 12:05 9,7 C 12,4 C 48 % 1018,1 hPa 0,0 mm 14,0 km/h (3 Bft) O-NO 67 -0,8 C 15,8 km/h (3 Bft)
19.04.2015 12:10 9,8 C 12,4 C 47 % 1018,1 hPa 0,0 mm 16,3 km/h (3 Bft) O-NO 67 -1,0 C 16,6 km/h (3 Bft)
19.04.2015 12:15 9,9 C 12,3 C 47 % 1017,9 hPa 0,0 mm 16,8 km/h (3 Bft) O-NO 67 -0,9 C 11,7 km/h (2 Bft)
19.04.2015 12:20 10,2 C 12,6 C 48 % 1017,9 hPa 0,0 mm 14,0 km/h (3 Bft) N-NO 22 -0,3 C 9,8 km/h (2 Bft)
19.04.2015 12:25 10,4 C 13,2 C 47 % 1017,9 hPa 0,0 mm 13,2 km/h (3 Bft) NO 45 -0,4 C 20,7 km/h (4 Bft)
19.04.2015 12:30 10,4 C 13,4 C 47 % 1017,9 hPa 0,0 mm 13,7 km/h (3 Bft) NO 45 -0,4 C 15,3 km/h (3 Bft)
19.04.2015 12:35 10,6 C 13,3 C 47 % 1018,0 hPa 0,0 mm 16,1 km/h (3 Bft) NO 45 -0,2 C 33,7 km/h (5 Bft)
19.04.2015 12:40 10,7 C 13,1 C 48 % 1018,0 hPa 0,0 mm 16,3 km/h (3 Bft) O-NO 67 0,1 C 14,0 km/h (3 Bft)
19.04.2015 12:45 11,0 C 13,3 C 47 % 1018,0 hPa 0,0 mm 15,5 km/h (3 Bft) NO 45 0,1 C 19,9 km/h (4 Bft)
19.04.2015 12:50 10,8 C 13,2 C 47 % 1018,0 hPa 0,0 mm 15,3 km/h (3 Bft) O-NO 67 -0,1 C 16,8 km/h (3 Bft)
19.04.2015 12:55 11,1 C 13,7 C 48 % 1017,8 hPa 0,0 mm 13,5 km/h (3 Bft) NO 45 0,5 C 16,3 km/h (3 Bft)
19.04.2015 13:00 11,1 C 14,3 C 48 % 1017,8 hPa 0,0 mm 11,4 km/h (2 Bft) N-NW 337 0,5 C 12,7 km/h (3 Bft)
19.04.2015 13:05 11,1 C 14,1 C 47 % 1017,8 hPa 0,0 mm 12,9 km/h (3 Bft) O-NO 67 0,2 C 15,3 km/h (3 Bft)
19.04.2015 13:10 11,3 C 13,6 C 48 % 1017,8 hPa 0,0 mm 14,0 km/h (3 Bft) O-NO 67 0,7 C 17,6 km/h (3 Bft)
19.04.2015 13:15 11,3 C 13,0 C 47 % 1017,6 hPa 0,0 mm 14,2 km/h (3 Bft) O-NO 67 0,4 C 22,3 km/h (4 Bft)
19.04.2015 13:20 11,3 C 12,5 C 46 % 1017,6 hPa 0,0 mm 15,3 km/h (3 Bft) NO 45 0,1 C 21,0 km/h (4 Bft)
19.04.2015 13:25 11,4 C 12,2 C 46 % 1017,6 hPa 0,0 mm 16,1 km/h (3 Bft) NO 45 0,2 C 21,5 km/h (4 Bft)
19.04.2015 13:30 11,4 C 12,3 C 45 % 1017,6 hPa 0,0 mm 16,8 km/h (3 Bft) N-NO 22 -0,1 C 24,1 km/h (4 Bft)
19.04.2015 13:35 11,4 C 12,6 C 44 % 1017,6 hPa 0,0 mm 15,8 km/h (3 Bft) NO 45 -0,4 C 5,7 km/h (1 Bft)
19.04.2015 13:40 11,8 C 13,4 C 43 % 1017,6 hPa 0,0 mm 12,9 km/h (3 Bft) O-NO 67 -0,4 C 19,9 km/h (4 Bft)
19.04.2015 13:45 12,0 C 15,1 C 44 % 1017,6 hPa 0,0 mm 9,6 km/h (2 Bft) SO 135 0,1 C 8,8 km/h (2 Bft)
19.04.2015 13:50 12,3 C 15,5 C 44 % 1017,6 hPa 0,0 mm 10,1 km/h (2 Bft) O 90 0,4 C 10,6 km/h (2 Bft)
19.04.2015 13:55 12,3 C 15,8 C 44 % 1017,2 hPa 0,0 mm 10,9 km/h (2 Bft) SO 135 0,4 C 12,4 km/h (3 Bft)
19.04.2015 14:00 12,6 C 16,0 C 45 % 1017,2 hPa 0,0 mm 10,6 km/h (2 Bft) N-NO 22 1,0 C 8,3 km/h (2 Bft)
19.04.2015 14:05 12,6 C 16,0 C 43 % 1017,2 hPa 0,0 mm 11,4 km/h (2 Bft) N-NO 22 0,4 C 19,2 km/h (3 Bft)
19.04.2015 14:10 12,6 C 15,8 C 43 % 1017,2 hPa 0,0 mm 13,2 km/h (3 Bft) N-NO 22 0,4 C 18,1 km/h (3 Bft)
19.04.2015 14:15 12,8 C 16,0 C 43 % 1017,2 hPa 0,0 mm 13,2 km/h (3 Bft) NO 45 0,5 C 23,8 km/h (4 Bft)
19.04.2015 14:20 12,7 C 15,7 C 43 % 1017,2 hPa 0,0 mm 11,4 km/h (2 Bft) NO 45 0,5 C 14,5 km/h (3 Bft)
19.04.2015 14:25 12,9 C 16,1 C 44 % 1017,2 hPa 0,0 mm 11,1 km/h (2 Bft) O-SO 112 1,0 C 9,8 km/h (2 Bft)
19.04.2015 14:30 12,8 C 15,9 C 43 % 1017,2 hPa 0,0 mm 10,6 km/h (2 Bft) O-NO 67 0,5 C 18,4 km/h (3 Bft)
19.04.2015 14:35 12,8 C 15,8 C 42 % 1017,0 hPa 0,0 mm 11,7 km/h (2 Bft) O-NO 67 0,2 C 19,7 km/h (3 Bft)
19.04.2015 14:40 12,8 C 15,7 C 42 % 1017,0 hPa 0,0 mm 14,8 km/h (3 Bft) O-NO 67 0,2 C 16,6 km/h (3 Bft)
19.04.2015 14:45 12,8 C 15,3 C 42 % 1017,0 hPa 0,0 mm 15,0 km/h (3 Bft) N-NO 22 0,2 C 22,5 km/h (4 Bft)
19.04.2015 14:50 12,9 C 15,4 C 42 % 1017,0 hPa 0,0 mm 13,2 km/h (3 Bft) O-NO 67 0,3 C 22,3 km/h (4 Bft)
19.04.2015 14:55 12,9 C 15,5 C 41 % 1016,8 hPa 0,0 mm 12,9 km/h (3 Bft) O-NO 67 -0,0 C 17,9 km/h (3 Bft)
19.04.2015 15:00 12,9 C 15,7 C 41 % 1016,8 hPa 0,0 mm 11,7 km/h (2 Bft) O-NO 67 -0,0 C 9,6 km/h (2 Bft)
19.04.2015 15:05 13,1 C 15,8 C 39 % 1016,8 hPa 0,0 mm 12,4 km/h (3 Bft) NO 45 -0,5 C 14,8 km/h (3 Bft)
19.04.2015 15:10 13,0 C 15,9 C 39 % 1016,8 hPa 0,0 mm 12,9 km/h (3 Bft) O-NO 67 -0,6 C 7,8 km/h (2 Bft)
19.04.2015 15:15 12,9 C 15,8 C 39 % 1016,6 hPa 0,0 mm 12,9 km/h (3 Bft) O-NO 67 -0,7 C 21,2 km/h (4 Bft)
19.04.2015 15:20 13,1 C 15,7 C 38 % 1016,6 hPa 0,0 mm 12,7 km/h (3 Bft) O-NO 67 -0,9 C 18,9 km/h (3 Bft)
19.04.2015 15:25 12,8 C 15,5 C 38 % 1016,6 hPa 0,0 mm 12,9 km/h (3 Bft) O 90 -1,2 C 11,7 km/h (2 Bft)
19.04.2015 15:30 12,9 C 15,4 C 39 % 1016,6 hPa 0,0 mm 11,9 km/h (2 Bft) O-NO 67 -0,7 C 12,2 km/h (2 Bft)
19.04.2015 15:35 13,0 C 15,3 C 37 % 1016,4 hPa 0,0 mm 10,6 km/h (2 Bft) O-NO 67 -1,3 C 5,4 km/h (1 Bft)
19.04.2015 15:40 13,3 C 15,9 C 38 % 1016,4 hPa 0,0 mm 10,4 km/h (2 Bft) O 90 -0,7 C 4,9 km/h (1 Bft)
19.04.2015 15:45 13,8 C 16,8 C 39 % 1016,4 hPa 0,0 mm 9,8 km/h (2 Bft) NO 45 0,1 C 18,9 km/h (3 Bft)
19.04.2015 15:50 13,8 C 16,9 C 38 % 1016,4 hPa 0,0 mm 9,6 km/h (2 Bft) N-NO 22 -0,3 C 7,0 km/h (2 Bft)
19.04.2015 15:55 13,9 C 17,3 C 38 % 1016,2 hPa 0,0 mm 10,4 km/h (2 Bft) O-SO 112 -0,2 C 11,1 km/h (2 Bft)
19.04.2015 16:00 13,8 C 17,2 C 38 % 1016,2 hPa 0,0 mm 9,6 km/h (2 Bft) NO 45 -0,3 C 17,3 km/h (3 Bft)
19.04.2015 16:05 13,7 C 17,1 C 38 % 1016,2 hPa 0,0 mm 9,8 km/h (2 Bft) N 360 -0,4 C 14,0 km/h (3 Bft)
19.04.2015 16:10 13,7 C 17,0 C 37 % 1016,2 hPa 0,0 mm 10,9 km/h (2 Bft) NO 45 -0,7 C 11,1 km/h (2 Bft)
19.04.2015 16:15 13,9 C 17,2 C 38 % 1016,1 hPa 0,0 mm 10,6 km/h (2 Bft) N-NO 22 -0,2 C 9,1 km/h (2 Bft)
19.04.2015 16:20 13,5 C 16,9 C 37 % 1016,1 hPa 0,0 mm 10,4 km/h (2 Bft) O-NO 67 -0,9 C 17,6 km/h (3 Bft)
19.04.2015 16:25 13,4 C 16,5 C 37 % 1016,1 hPa 0,0 mm 13,2 km/h (3 Bft) NO 45 -1,0 C 24,6 km/h (4 Bft)
19.04.2015 16:30 13,4 C 16,4 C 38 % 1016,1 hPa 0,0 mm 13,2 km/h (3 Bft) NO 45 -0,6 C 10,1 km/h (2 Bft)
19.04.2015 16:35 13,4 C 16,8 C 38 % 1016,0 hPa 0,0 mm 10,1 km/h (2 Bft) NO 45 -0,6 C 10,9 km/h (2 Bft)
19.04.2015 16:40 13,4 C 17,0 C 38 % 1016,0 hPa 0,0 mm 9,6 km/h (2 Bft) NO 45 -0,6 C 16,1 km/h (3 Bft)
19.04.2015 16:45 13,5 C 16,5 C 38 % 1016,0 hPa 0,0 mm 12,2 km/h (2 Bft) NO 45 -0,5 C 11,7 km/h (2 Bft)
19.04.2015 16:50 13,3 C 15,9 C 38 % 1016,0 hPa 0,0 mm 11,7 km/h (2 Bft) O-NO 67 -0,7 C 12,9 km/h (3 Bft)
19.04.2015 16:55 13,3 C 15,2 C 38 % 1015,9 hPa 0,0 mm 11,1 km/h (2 Bft) O-NO 67 -0,7 C 17,6 km/h (3 Bft)
19.04.2015 17:00 13,2 C 14,9 C 38 % 1015,9 hPa 0,0 mm 12,9 km/h (3 Bft) N-NO 22 -0,8 C 19,2 km/h (3 Bft)
19.04.2015 17:05 13,1 C 14,7 C 38 % 1015,9 hPa 0,0 mm 13,5 km/h (3 Bft) O-NO 67 -0,9 C 19,9 km/h (4 Bft)
19.04.2015 17:10 13,1 C 14,7 C 38 % 1015,9 hPa 0,0 mm 13,7 km/h (3 Bft) O-NO 67 -0,9 C 12,2 km/h (2 Bft)
19.04.2015 17:15 13,1 C 14,5 C 38 % 1016,1 hPa 0,0 mm 13,5 km/h (3 Bft) N-NO 22 -0,9 C 16,3 km/h (3 Bft)
19.04.2015 17:20 13,1 C 14,2 C 38 % 1016,1 hPa 0,0 mm 12,4 km/h (3 Bft) NO 45 -0,9 C 15,5 km/h (3 Bft)
19.04.2015 17:25 13,1 C 13,7 C 38 % 1016,1 hPa 0,0 mm 13,5 km/h (3 Bft) O-NO 67 -0,9 C 17,9 km/h (3 Bft)
19.04.2015 17:30 13,0 C 13,3 C 38 % 1016,1 hPa 0,0 mm 14,8 km/h (3 Bft) O-NO 67 -1,0 C 15,5 km/h (3 Bft)
19.04.2015 17:35 13,0 C 13,1 C 38 % 1016,1 hPa 0,0 mm 13,2 km/h (3 Bft) O-NO 67 -1,0 C 19,7 km/h (3 Bft)
19.04.2015 17:40 12,9 C 13,1 C 38 % 1016,1 hPa 0,0 mm 12,7 km/h (3 Bft) NO 45 -1,1 C 20,5 km/h (4 Bft)
19.04.2015 17:45 13,0 C 13,5 C 38 % 1016,1 hPa 0,0 mm 10,6 km/h (2 Bft) O-NO 67 -1,0 C 15,0 km/h (3 Bft)
19.04.2015 17:50 12,9 C 13,6 C 38 % 1016,1 hPa 0,0 mm 10,9 km/h (2 Bft) N-NO 22 -1,1 C 8,0 km/h (2 Bft)
19.04.2015 17:55 12,8 C 13,3 C 38 % 1016,1 hPa 0,0 mm 12,9 km/h (3 Bft) N-NO 22 -1,2 C 17,1 km/h (3 Bft)
19.04.2015 18:00 12,7 C 13,0 C 38 % 1016,1 hPa 0,0 mm 12,9 km/h (3 Bft) O-NO 67 -1,2 C 21,0 km/h (4 Bft)
19.04.2015 18:05 12,5 C 12,9 C 38 % 1016,1 hPa 0,0 mm 14,0 km/h (3 Bft) O-NO 67 -1,4 C 12,4 km/h (3 Bft)
19.04.2015 18:10 12,4 C 12,7 C 38 % 1016,1 hPa 0,0 mm 14,0 km/h (3 Bft) NO 45 -1,5 C 17,9 km/h (3 Bft)
19.04.2015 18:15 12,4 C 12,7 C 38 % 1016,2 hPa 0,0 mm 12,4 km/h (3 Bft) N-NO 22 -1,5 C 15,5 km/h (3 Bft)
19.04.2015 18:20 12,3 C 12,5 C 38 % 1016,2 hPa 0,0 mm 12,7 km/h (3 Bft) O-NO 67 -1,6 C 23,0 km/h (4 Bft)
19.04.2015 18:25 12,2 C 12,6 C 38 % 1016,2 hPa 0,0 mm 12,2 km/h (2 Bft) N 360 -1,7 C 11,9 km/h (2 Bft)
19.04.2015 18:30 12,1 C 12,9 C 38 % 1016,2 hPa 0,0 mm 11,4 km/h (2 Bft) N-NO 22 -1,8 C 7,0 km/h (2 Bft)
19.04.2015 18:35 12,0 C 12,9 C 38 % 1016,5 hPa 0,0 mm 11,7 km/h (2 Bft) NO 45 -1,9 C 19,4 km/h (3 Bft)
19.04.2015 18:40 11,9 C 12,7 C 38 % 1016,5 hPa 0,0 mm 11,7 km/h (2 Bft) NO 45 -2,0 C 19,2 km/h (3 Bft)
19.04.2015 18:45 11,8 C 12,5 C 38 % 1016,5 hPa 0,0 mm 12,7 km/h (3 Bft) N-NO 22 -2,0 C 17,1 km/h (3 Bft)
19.04.2015 18:50 11,8 C 12,1 C 38 % 1016,5 hPa 0,0 mm 12,2 km/h (2 Bft) NO 45 -2,0 C 28,0 km/h (4 Bft)
19.04.2015 18:55 11,7 C 12,3 C 38 % 1016,6 hPa 0,0 mm 12,2 km/h (2 Bft) N-NO 22 -2,1 C 18,9 km/h (3 Bft)
19.04.2015 19:00 11,6 C 12,4 C 38 % 1016,6 hPa 0,0 mm 13,5 km/h (3 Bft) NO 45 -2,2 C 16,8 km/h (3 Bft)
19.04.2015 19:05 11,5 C 12,2 C 38 % 1016,6 hPa 0,0 mm 14,8 km/h (3 Bft) NO 45 -2,3 C 23,3 km/h (4 Bft)
19.04.2015 19:10 11,4 C 12,0 C 39 % 1016,6 hPa 0,0 mm 13,2 km/h (3 Bft) NO 45 -2,0 C 9,3 km/h (2 Bft)
19.04.2015 19:15 11,3 C 12,0 C 39 % 1016,8 hPa 0,0 mm 11,1 km/h (2 Bft) O-NO 67 -2,1 C 12,7 km/h (3 Bft)
19.04.2015 19:20 11,1 C 12,4 C 39 % 1016,8 hPa 0,0 mm 9,3 km/h (2 Bft) NO 45 -2,3 C 10,1 km/h (2 Bft)
19.04.2015 19:25 10,7 C 12,4 C 43 % 1016,8 hPa 0,0 mm 3,6 km/h (1 Bft) NO 45 -1,4 C 3,6 km/h (1 Bft)
19.04.2015 19:30 10,5 C 12,5 C 44 % 1016,8 hPa 0,0 mm 2,3 km/h (1 Bft) NO 45 -1,2 C 12,2 km/h (2 Bft)
19.04.2015 19:35 10,3 C 12,2 C 45 % 1016,9 hPa 0,0 mm 6,0 km/h (2 Bft) O-NO 67 -1,1 C 15,0 km/h (3 Bft)
19.04.2015 19:40 10,0 C 11,9 C 45 % 1016,9 hPa 0,0 mm 5,7 km/h (1 Bft) N-NW 337 -1,4 C 4,7 km/h (1 Bft)
19.04.2015 19:45 9,5 C 11,3 C 47 % 1016,9 hPa 0,0 mm 2,8 km/h (1 Bft) SO 135 -1,2 C 7,8 km/h (2 Bft)
19.04.2015 19:50 9,2 C 10,9 C 47 % 1016,9 hPa 0,0 mm 2,1 km/h (1 Bft) O-SO 112 -1,5 C 5,2 km/h (1 Bft)
19.04.2015 19:55 9,0 C 10,1 C 48 % 1017,2 hPa 0,0 mm 3,1 km/h (1 Bft) O-SO 112 -1,4 C 0,0 km/h (0 Bft)
19.04.2015 20:00 8,5 C 9,5 C 48 % 1017,2 hPa 0,0 mm 2,1 km/h (1 Bft) O 90 -1,9 C 3,4 km/h (1 Bft)
19.04.2015 20:05 8,4 C 8,8 C 49 % 1017,2 hPa 0,0 mm 1,8 km/h (1 Bft) O-NO 67 -1,7 C 3,6 km/h (1 Bft)
19.04.2015 20:10 8,1 C 8,3 C 49 % 1017,2 hPa 0,0 mm 2,6 km/h (1 Bft) O-SO 112 -2,0 C 2,8 km/h (1 Bft)
19.04.2015 20:15 8,0 C 7,9 C 50 % 1017,3 hPa 0,0 mm 3,1 km/h (1 Bft) O-NO 67 -1,8 C 6,7 km/h (2 Bft)
19.04.2015 20:20 7,9 C 7,7 C 50 % 1017,3 hPa 0,0 mm 3,1 km/h (1 Bft) O-SO 112 -1,9 C 0,0 km/h (0 Bft)
19.04.2015 20:25 7,7 C 7,5 C 51 % 1017,3 hPa 0,0 mm 4,1 km/h (1 Bft) O-NO 67 -1,8 C 5,2 km/h (1 Bft)
19.04.2015 20:30 7,4 C 7,2 C 51 % 1017,3 hPa 0,0 mm 3,1 km/h (1 Bft) O-NO 67 -2,1 C 2,6 km/h (1 Bft)
19.04.2015 20:35 7,0 C 6,8 C 52 % 1017,6 hPa 0,0 mm 1,6 km/h (1 Bft) SO 135 -2,2 C 0,0 km/h (0 Bft)
19.04.2015 20:40 6,8 C 6,6 C 53 % 1017,6 hPa 0,0 mm 1,3 km/h (1 Bft) O-NO 67 -2,1 C 0,0 km/h (0 Bft)
19.04.2015 20:45 6,7 C 6,4 C 54 % 1017,6 hPa 0,0 mm 1,6 km/h (1 Bft) O-SO 112 -1,9 C 5,4 km/h (1 Bft)
19.04.2015 20:50 6,6 C 6,3 C 54 % 1017,6 hPa 0,0 mm 1,6 km/h (1 Bft) O-SO 112 -2,0 C 0,0 km/h (0 Bft)
19.04.2015 20:55 6,4 C 6,2 C 55 % 1017,9 hPa 0,0 mm 1,8 km/h (1 Bft) O-NO 67 -2,0 C 0,0 km/h (0 Bft)
19.04.2015 21:00 6,0 C 5,8 C 56 % 1017,9 hPa 0,0 mm 1,0 km/h (0 Bft) O-SO 112 -2,1 C 5,7 km/h (1 Bft)
19.04.2015 21:05 6,2 C 5,9 C 56 % 1017,9 hPa 0,0 mm 0,8 km/h (0 Bft) O 90 -1,9 C 0,0 km/h (0 Bft)
19.04.2015 21:10 6,2 C 5,8 C 56 % 1017,9 hPa 0,0 mm 0,8 km/h (0 Bft) SO 135 -1,9 C 0,0 km/h (0 Bft)
19.04.2015 21:15 6,3 C 5,9 C 56 % 1018,0 hPa 0,0 mm 1,0 km/h (0 Bft) SO 135 -1,8 C 3,6 km/h (1 Bft)
19.04.2015 21:20 6,3 C 5,9 C 56 % 1018,0 hPa 0,0 mm 2,3 km/h (1 Bft) SO 135 -1,8 C 4,7 km/h (1 Bft)
19.04.2015 21:25 6,1 C 5,8 C 56 % 1018,0 hPa 0,0 mm 2,6 km/h (1 Bft) SO 135 -2,0 C 2,8 km/h (1 Bft)
19.04.2015 21:30 6,0 C 5,7 C 56 % 1018,0 hPa 0,0 mm 2,1 km/h (1 Bft) S-SO 157 -2,1 C 3,4 km/h (1 Bft)
19.04.2015 21:35 5,9 C 5,6 C 57 % 1018,3 hPa 0,0 mm 2,1 km/h (1 Bft) O-SO 112 -2,0 C 3,9 km/h (1 Bft)
19.04.2015 21:40 5,9 C 5,6 C 57 % 1018,3 hPa 0,0 mm 2,6 km/h (1 Bft) SO 135 -2,0 C 3,4 km/h (1 Bft)
19.04.2015 21:45 5,7 C 5,4 C 57 % 1018,3 hPa 0,0 mm 1,8 km/h (1 Bft) S-SO 157 -2,1 C 0,0 km/h (0 Bft)
19.04.2015 21:50 5,5 C 5,2 C 58 % 1018,3 hPa 0,0 mm 0,8 km/h (0 Bft) SO 135 -2,1 C 0,0 km/h (0 Bft)
19.04.2015 21:55 4,3 C 4,2 C 58 % 1018,4 hPa 0,0 mm 0,0 km/h (0 Bft) O-SO 112 -3,2 C 0,0 km/h (0 Bft)
19.04.2015 22:00 4,6 C 4,2 C 60 % 1018,4 hPa 0,0 mm 0,3 km/h (0 Bft) SO 135 -2,5 C 3,1 km/h (1 Bft)
19.04.2015 22:05 5,2 C 4,6 C 59 % 1018,4 hPa 0,0 mm 1,3 km/h (1 Bft) S-SO 157 -2,1 C 2,6 km/h (1 Bft)
19.04.2015 22:10 5,2 C 4,7 C 59 % 1018,4 hPa 0,0 mm 1,6 km/h (1 Bft) SO 135 -2,1 C 0,0 km/h (0 Bft)
19.04.2015 22:15 5,1 C 4,6 C 59 % 1018,3 hPa 0,0 mm 1,3 km/h (1 Bft) SO 135 -2,2 C 3,4 km/h (1 Bft)
19.04.2015 22:20 5,1 C 4,6 C 59 % 1018,3 hPa 0,0 mm 0,8 km/h (0 Bft) SO 135 -2,2 C 0,0 km/h (0 Bft)
19.04.2015 22:25 4,9 C 4,4 C 59 % 1018,3 hPa 0,0 mm 0,3 km/h (0 Bft) S-SO 157 -2,4 C 0,0 km/h (0 Bft)
19.04.2015 22:30 4,8 C 4,3 C 59 % 1018,3 hPa 0,0 mm 0,0 km/h (0 Bft) S-SO 157 -2,5 C 0,0 km/h (0 Bft)
19.04.2015 22:35 3,7 C 3,4 C 59 % 1018,8 hPa 0,0 mm 0,0 km/h (0 Bft) S-SO 157 -3,6 C 0,0 km/h (0 Bft)
19.04.2015 22:40 3,2 C 2,9 C 59 % 1018,8 hPa 0,0 mm 0,0 km/h (0 Bft) O-SO 112 -4,0 C 0,0 km/h (0 Bft)
19.04.2015 22:45 2,8 C 2,5 C 61 % 1018,8 hPa 0,0 mm 0,0 km/h (0 Bft) O-SO 112 -4,0 C 0,0 km/h (0 Bft)
19.04.2015 22:50 2,9 C 2,4 C 62 % 1018,8 hPa 0,0 mm 0,0 km/h (0 Bft) O-SO 112 -3,6 C 0,0 km/h (0 Bft)
19.04.2015 22:55 3,2 C 2,5 C 62 % 1018,9 hPa 0,0 mm 0,0 km/h (0 Bft) SO 135 -3,4 C 2,6 km/h (1 Bft)
19.04.2015 23:00 3,1 C 2,5 C 63 % 1018,9 hPa 0,0 mm 0,3 km/h (0 Bft) SO 135 -3,2 C 0,0 km/h (0 Bft)
19.04.2015 23:05 2,5 C 2,0 C 64 % 1018,9 hPa 0,0 mm 0,3 km/h (0 Bft) SO 135 -3,6 C 0,0 km/h (0 Bft)
19.04.2015 23:10 2,3 C 1,8 C 64 % 1018,9 hPa 0,0 mm 0,0 km/h (0 Bft) O-SO 112 -3,8 C 0,0 km/h (0 Bft)
19.04.2015 23:15 1,8 C 1,4 C 65 % 1018,9 hPa 0,0 mm 0,0 km/h (0 Bft) SO 135 -4,1 C 0,0 km/h (0 Bft)
19.04.2015 23:20 2,2 C 1,6 C 66 % 1018,9 hPa 0,0 mm 0,0 km/h (0 Bft) SO 135 -3,5 C 0,0 km/h (0 Bft)
19.04.2015 23:25 3,0 C 2,6 C 66 % 1018,9 hPa 0,0 mm 1,0 km/h (0 Bft) S-SO 157 -2,7 C 3,9 km/h (1 Bft)
19.04.2015 23:30 3,1 C 2,8 C 66 % 1018,9 hPa 0,0 mm 1,6 km/h (1 Bft) S-SO 157 -2,6 C 0,0 km/h (0 Bft)
19.04.2015 23:35 2,7 C 2,4 C 66 % 1018,9 hPa 0,0 mm 1,0 km/h (0 Bft) SO 135 -3,0 C 3,1 km/h (1 Bft)
19.04.2015 23:40 2,4 C 2,3 C 66 % 1018,9 hPa 0,0 mm 0,3 km/h (0 Bft) O-SO 112 -3,3 C 0,0 km/h (0 Bft)
19.04.2015 23:45 1,8 C 1,5 C 66 % 1018,9 hPa 0,0 mm 0,3 km/h (0 Bft) S 180 -3,9 C 0,0 km/h (0 Bft)
19.04.2015 23:50 1,5 C 1,2 C 67 % 1018,9 hPa 0,0 mm 0,0 km/h (0 Bft) S 180 -3,9 C 0,0 km/h (0 Bft)
19.04.2015 23:55 1,5 C 1,0 C 68 % 1018,8 hPa 0,0 mm 0,0 km/h (0 Bft) S 180 -3,7 C 0,0 km/h (0 Bft)
_ Min-Zeit 06:45 05:55 16:25 17:10 - 23:55 - - 05:55 23:55
Minimum _ -4,5 C -5,0 C 37 % 1015,9 hPa - 0,0 km/h (0 Bft) - - -6,9 C 0,0 km/h (0 Bft)
_ Max-Zeit 16:15 15:55 07:30 00:30 23:55 11:10 - - 14:00 12:35
Maximum _ 13,9 C 17,3 C 86 % 1019,9 hPa 0,0 mm 17,6 km/h
NO (3 Bft)
- - 1,0 C 33,7 km/h
NO (5 Bft)
Durchschnitt _ 4,7 C 5,9 C 62 % 1017,6 hPa #0,0 mm 6,0 km/h (2 Bft) O-NO - -2,7 C 8,1 km/h (2 Bft)